• In Russia
  • List of Countries
  • For 7 days
  • Water Temperature
  • Satellite Maps
  • Weather Map
  • Weather Widgets
  • user-avatar
    Login

    Hourly Weather Graz

    Today, 25 May, Thursday

    Time Temperature Precipitation Wind Pressure Humidity
    00:00 +12°C° 1 mm 1 mps 726 mmHg 93%
    01:00 +12°C° 1 mm 1 mps 726 mmHg 96%
    02:00 +11°C° 0.5 mm 1 mps 726 mmHg 96%
    03:00 +10°C° 0.5 mm 1 mps 726 mmHg 96%
    04:00 +9°C° 0.5 mm 1 mps 726 mmHg 96%
    05:00 +10°C° 0 mm 1 mps 726 mmHg 93%
    06:00 +12°C° 0 mm 1 mps 726 mmHg 89%
    07:00 +13°C° 0 mm 1 mps 727 mmHg 85%
    08:00 +15°C° 0 mm 2 mps 727 mmHg 75%
    09:00 +16°C° 0 mm 2 mps 727 mmHg 65%
    10:00 +17°C° 0 mm 3 mps 727 mmHg 54%
    11:00 +18°C° 0 mm 3 mps 727 mmHg 51%
    12:00 +19°C° 0 mm 3 mps 726 mmHg 49%
    13:00 +20°C° 0 mm 3 mps 726 mmHg 46%
    14:00 +20°C° 0 mm 3 mps 726 mmHg 47%
    15:00 +20°C° 0 mm 3 mps 726 mmHg 49%
    16:00 +20°C° 0 mm 3 mps 726 mmHg 50%
    17:00 +18°C° 0.1 mm 2 mps 725 mmHg 60%
    18:00 +17°C° 0.1 mm 2 mps 725 mmHg 69%
    19:00 +15°C° 0.1 mm 1 mps 725 mmHg 79%
    20:00 +14°C° 0 mm 1 mps 725 mmHg 83%
    21:00 +12°C° 0 mm 1 mps 726 mmHg 88%
    22:00 +11°C° 0 mm 1 mps 726 mmHg 93%
    23:00 +11°C° 0 mm 1 mps 726 mmHg 93%

    Tomorrow, 26 May, Friday

    Time Temperature Precipitation Wind Pressure Humidity
    00:00 +10°C° 0 mm 1 mps 726 mmHg 93%
    01:00 +9°C° 0 mm 2 mps 726 mmHg 93%
    02:00 +10°C° 0 mm 1 mps 726 mmHg 93%
    03:00 +10°C° 0 mm 1 mps 726 mmHg 94%
    04:00 +10°C° 0 mm 1 mps 726 mmHg 94%
    05:00 +11°C° 0 mm 1 mps 726 mmHg 88%
    06:00 +13°C° 0 mm 1 mps 726 mmHg 82%
    07:00 +15°C° 0 mm 1 mps 726 mmHg 76%
    08:00 +18°C° 0 mm 1 mps 726 mmHg 69%
    09:00 +19°C° 0 mm 1 mps 727 mmHg 62%
    10:00 +21°C° 0 mm 1 mps 727 mmHg 55%
    11:00 +21°C° 0 mm 1 mps 727 mmHg 53%
    12:00 +21°C° 0 mm 2 mps 726 mmHg 52%
    13:00 +23°C° 0 mm 2 mps 726 mmHg 50%
    14:00 +23°C° 0 mm 2 mps 726 mmHg 51%
    15:00 +21°C° 0 mm 2 mps 726 mmHg 52%
    16:00 +21°C° 0 mm 2 mps 726 mmHg 53%
    17:00 +20°C° 0 mm 2 mps 726 mmHg 62%
    18:00 +18°C° 0 mm 2 mps 726 mmHg 71%
    19:00 +18°C° 0 mm 1 mps 726 mmHg 80%
    20:00 +15°C° 0 mm 1 mps 726 mmHg 84%
    21:00 +13°C° 0 mm 1 mps 726 mmHg 89%
    22:00 +12°C° 0 mm 1 mps 726 mmHg 94%
    23:00 +12°C° 0 mm 1 mps 727 mmHg 94%

    Day after tomorrow, 27 May, Saturday

    Time Temperature Precipitation Wind Pressure Humidity
    00:00 +11°C° 0 mm 1 mps 727 mmHg 93%
    01:00 +11°C° 0 mm 1 mps 727 mmHg 93%
    02:00 +11°C° 0 mm 1 mps 727 mmHg 93%
    03:00 +11°C° 0 mm 1 mps 727 mmHg 93%
    04:00 +11°C° 0 mm 1 mps 727 mmHg 93%
    05:00 +13°C° 0 mm 1 mps 727 mmHg 86%
    06:00 +15°C° 0 mm 1 mps 727 mmHg 79%
    07:00 +18°C° 0 mm 1 mps 728 mmHg 73%
    08:00 +20°C° 0 mm 1 mps 728 mmHg 65%
    09:00 +22°C° 0 mm 1 mps 728 mmHg 56%
    10:00 +23°C° 0 mm 1 mps 728 mmHg 48%
    11:00 +24°C° 0.1 mm 2 mps 728 mmHg 48%
    12:00 +24°C° 0.1 mm 2 mps 728 mmHg 48%
    13:00 +25°C° 0.1 mm 2 mps 728 mmHg 48%
    14:00 +24°C° 0.1 mm 2 mps 728 mmHg 52%
    15:00 +24°C° 0.1 mm 2 mps 728 mmHg 55%
    16:00 +23°C° 0.1 mm 2 mps 728 mmHg 59%
    17:00 +21°C° 0 mm 2 mps 728 mmHg 68%
    18:00 +20°C° 0 mm 1 mps 728 mmHg 76%
    19:00 +19°C° 0 mm 1 mps 728 mmHg 84%
    20:00 +16°C° 0 mm 1 mps 728 mmHg 87%
    21:00 +15°C° 0 mm 1 mps 729 mmHg 90%
    22:00 +13°C° 0 mm 1 mps 729 mmHg 93%
    23:00 +13°C° 0 mm 1 mps 729 mmHg 93%

    28 May, Sunday

    Time Temperature Precipitation Wind Pressure Humidity
    00:00 +12°C° 0 mm 1 mps 729 mmHg 93%
    01:00 +11°C° 0 mm 1 mps 729 mmHg 93%
    02:00 +11°C° 0 mm 1 mps 729 mmHg 93%
    03:00 +9°C° 0 mm 0 mps 729 mmHg 93%
    04:00 +9°C° 0 mm 0 mps 729 mmHg 94%
    05:00 +12°C° 0 mm 1 mps 729 mmHg 87%
    06:00 +15°C° 0 mm 1 mps 730 mmHg 81%
    07:00 +18°C° 0 mm 1 mps 730 mmHg 74%
    08:00 +20°C° 0 mm 1 mps 730 mmHg 67%
    09:00 +21°C° 0 mm 1 mps 730 mmHg 61%
    10:00 +23°C° 0 mm 1 mps 730 mmHg 54%
    11:00 +24°C° 0 mm 2 mps 730 mmHg 52%
    12:00 +24°C° 0 mm 2 mps 730 mmHg 49%
    13:00 +25°C° 0 mm 2 mps 729 mmHg 47%
    14:00 +25°C° 0 mm 2 mps 729 mmHg 49%
    15:00 +25°C° 0 mm 2 mps 729 mmHg 52%
    16:00 +25°C° 0 mm 2 mps 729 mmHg 54%
    17:00 +23°C° 0 mm 2 mps 729 mmHg 64%
    18:00 +21°C° 0 mm 2 mps 728 mmHg 73%
    19:00 +20°C° 0 mm 1 mps 728 mmHg 83%
    20:00 +18°C° 0 mm 1 mps 728 mmHg 87%
    21:00 +15°C° 0 mm 1 mps 728 mmHg 91%
    22:00 +14°C° 0 mm 1 mps 728 mmHg 95%
    23:00 +13°C° 0 mm 1 mps 728 mmHg 96%

    29 May, Monday

    Time Temperature Precipitation Wind Pressure Humidity
    00:00 +13°C° 0 mm 1 mps 727 mmHg 96%
    01:00 +13°C° 0 mm 1 mps 727 mmHg 96%
    02:00 +13°C° 0 mm 1 mps 727 mmHg 96%
    03:00 +12°C° 0 mm 1 mps 726 mmHg 95%
    04:00 +12°C° 0 mm 1 mps 726 mmHg 95%
    05:00 +15°C° 0 mm 1 mps 726 mmHg 88%
    06:00 +18°C° 0 mm 1 mps 726 mmHg 82%
    07:00 +21°C° 0 mm 1 mps 727 mmHg 75%
    08:00 +23°C° 0 mm 1 mps 727 mmHg 67%
    09:00 +25°C° 0 mm 1 mps 727 mmHg 59%
    10:00 +27°C° 0 mm 1 mps 727 mmHg 52%
    11:00 +28°C° 0 mm 1 mps 726 mmHg 50%
    12:00 +29°C° 0 mm 2 mps 726 mmHg 49%
    13:00 +29°C° 0 mm 2 mps 726 mmHg 47%
    14:00 +29°C° 0.1 mm 2 mps 725 mmHg 51%
    15:00 +29°C° 0.1 mm 2 mps 725 mmHg 54%
    16:00 +28°C° 0.1 mm 2 mps 725 mmHg 58%
    17:00 +26°C° 0.3 mm 2 mps 724 mmHg 67%
    18:00 +25°C° 0.3 mm 2 mps 724 mmHg 76%
    19:00 +23°C° 0.3 mm 1 mps 724 mmHg 85%
    20:00 +21°C° 0 mm 1 mps 723 mmHg 88%
    21:00 +19°C° 0 mm 1 mps 723 mmHg 91%
    22:00 +16°C° 0 mm 1 mps 723 mmHg 94%
    23:00 +16°C° 0.1 mm 1 mps 723 mmHg 94%

    30 May, Tuesday

    Time Temperature Precipitation Wind Pressure Humidity
    00:00 +16°C° 0.1 mm 1 mps 723 mmHg 94%
    01:00 +15°C° 0.1 mm 1 mps 722 mmHg 93%
    02:00 +15°C° 0 mm 1 mps 722 mmHg 93%
    03:00 +15°C° 0 mm 1 mps 722 mmHg 93%
    04:00 +15°C° 0 mm 1 mps 722 mmHg 93%
    05:00 +18°C° 0 mm 1 mps 722 mmHg 88%
    06:00 +21°C° 0 mm 1 mps 723 mmHg 82%
    07:00 +23°C° 0 mm 1 mps 723 mmHg 76%
    08:00 +25°C° 0 mm 1 mps 723 mmHg 68%
    09:00 +27°C° 0 mm 1 mps 723 mmHg 59%
    10:00 +29°C° 0 mm 1 mps 723 mmHg 51%
    11:00 +29°C° 0.2 mm 1 mps 723 mmHg 52%
    12:00 +30°C° 0.2 mm 2 mps 723 mmHg 53%
    13:00 +30°C° 0.2 mm 2 mps 723 mmHg 54%
    14:00 +30°C° 0.5 mm 2 mps 722 mmHg 56%
    15:00 +29°C° 0.5 mm 2 mps 722 mmHg 58%
    16:00 +29°C° 0.5 mm 2 mps 722 mmHg 60%
    17:00 +27°C° 0.3 mm 2 mps 722 mmHg 67%
    18:00 +25°C° 0.3 mm 1 mps 722 mmHg 74%
    19:00 +24°C° 0.3 mm 1 mps 722 mmHg 81%
    20:00 +22°C° 0 mm 1 mps 722 mmHg 85%
    21:00 +20°C° 0 mm 1 mps 722 mmHg 89%
    22:00 +18°C° 0 mm 1 mps 722 mmHg 92%
    23:00 +16°C° 0 mm 1 mps 722 mmHg 92%
    Show more